Location: Fernhill
(41.0167°S, 175.6333°E)
Time: 14:20:18
(UTC+00:00)

Cosmos 1544 Rocket - Visible Passes

Search period start: 14 February 2026 00:00
Search period end: 24 February 2026 00:00
Orbit: 597 x 624 km, 82.5° (Epoch: 13 February)

Date Brightness Start Highest point End Pass type
(mag) Time Alt. Az. Time Alt. Az. Time Alt. Az.
14 Feb 3.5 08:45:42 10° N 08:50:09 83° E 08:54:41 10° S visible
15 Feb 4.3 09:00:28 10° NNW 09:04:50 55° W 09:09:17 10° S visible
16 Feb 5.4 09:15:36 10° NW 09:19:36 32° WSW 09:23:39 10° SSW visible
17 Feb 4.1 07:52:31 10° NNE 07:56:38 37° E 08:00:48 10° SSE visible
17 Feb 6.3 09:31:14 10° WNW 09:34:27 19° WSW 09:37:42 10° SSW visible
18 Feb 3.6 08:06:47 10° N 08:11:12 67° E 08:15:41 10° SSE visible
18 Feb 6.8 09:47:55 10° W 09:49:23 11° WSW 09:50:51 10° SW visible
19 Feb 3.9 08:21:25 10° NNW 08:25:51 69° W 08:30:21 10° S visible
20 Feb 5.1 08:36:24 10° NNW 08:40:35 39° WSW 08:44:49 10° S visible
21 Feb 6.1 08:51:49 10° NW 08:55:24 23° WSW 08:59:00 10° SSW visible
22 Feb 6.8 09:07:57 10° W 09:10:18 14° WSW 09:12:39 10° SW visible
23 Feb 3.7 07:42:24 10° N 07:46:52 85° W 07:51:24 10° S visible
